Location: Smithsonian NASM Public Observatory
(38.8879°N, 77.0185°W)
Time: 23:31:51
(UTC-05:00)

Daily predictions for brighter satellites

Satellite Brightness Start Highest point End
(mag) Time Altitude Azimuth Time Altitude Azimuth Time Altitude Azimuth
Cosmos 1745 Rocket 4.1 18:08:21 10° S 18:14:35 63° E 18:20:46 10° NNE
Cosmos 1818 4.4 18:12:22 10° S 18:17:07 32° ESE 18:21:54 10° NE
NOSS 2-2 (C) 4.0 18:17:18 10° SW 18:21:17 62° NW 18:25:48 10° NNE
Cosmos 2151 Rocket 4.3 18:17:36 10° SSE 18:21:36 32° E 18:25:38 10° NNE
Cosmos 2322 Rocket 2.5 18:16:59 10° N 18:22:22 45° ENE 18:27:44 10° SE
Cosmos 1340 4.3 18:21:19 10° NE 18:23:34 15° ENE 18:25:48 10° ESE
Cosmos 1461 3.9 18:20:20 10° N 18:23:44 26° NE 18:27:10 10° ESE
Cosmos 1386 Rocket 4.5 18:21:10 10° S 18:27:11 59° E 18:33:06 10° NNE
Meteor 1-28 Rocket 3.3 18:26:44 10° N 18:30:33 82° W 18:34:20 10° SSW
DELTA 2 R/B (1) 3.6 18:25:56 10° W 18:31:35 83° N 18:36:54 12° E
SL-8 R/B 4.0 18:28:21 10° WNW 18:33:10 71° SW 18:37:58 10° SE
Okean 1 3.9 18:29:41 10° N 18:33:26 35° ENE 18:37:10 10° SE
Cosmos 1992 Rocket 4.1 18:30:35 10° NNW 18:35:50 85° WSW 18:41:03 10° SSE
FREGAT/IRIS 3.1 18:33:48 10° SE 18:36:42 40° ENE 18:39:38 10° N
Cosmos 407 Rocket 3.6 18:32:16 10° S 18:37:22 59° ESE 18:42:35 10° NNE
Cosmos 676 Rocket 4.4 18:33:28 10° S 18:38:16 40° ESE 18:43:06 10° NE
ALOS 2.8 18:37:21 10° SE 18:41:37 37° ENE 18:45:54 10° N
Meteor 1-25 Rocket 4.2 18:36:25 10° S 18:41:59 85° E 18:47:41 10° N
ERBS 3.9 18:39:06 10° WNW 18:42:20 37° SW 18:45:33 10° SSE
FENGYUN 3A 4.1 18:38:16 10° SE 18:43:17 40° ENE 18:48:20 10° N
Cosmos 1346 Rocket 4.3 18:39:45 10° NNW 18:43:27 40° W 18:47:05 10° SSW
COSMOS 2428 4.4 18:41:26 10° NNE 18:44:18 14° NE 18:45:51 13° ENE
deb Kosmos-1763 4.2 18:45:41 10° SSW 18:49:29 83° WNW 18:53:18 10° NNE
Cosmos 1975 Rocket 4.2 18:45:33 10° NNW 18:49:42 47° W 18:53:50 10° SSW
H-2A R/B 3.7 18:46:50 10° SE 18:49:52 24° ENE 18:52:54 10° NNE
Meteor 1-11 Rocket 4.3 18:48:20 10° SSE 18:53:33 37° E 18:58:53 10° NNE
Cosmos 1238 Rocket 3.1 18:53:26 10° NNE 18:55:56 25° ENE 18:55:56 25° ENE
Cosmos 1812 3.1 18:55:23 10° NNW 18:59:13 65° W 19:03:02 10° S
Helios 1B rocket 3.7 19:02:25 22° ESE 19:02:25 22° ESE 19:05:04 10° SSE
Cosmos 1190 Rocket 4.3 18:56:48 10° SSW 19:01:58 70° WNW 19:07:09 10° NNE
Cosmos 1140 Rocket 3.8 19:00:41 10° S 19:05:29 42° ESE 19:10:20 10° NNE
Cosmos 1536 Rocket 3.5 19:04:07 10° N 19:08:37 80° E 19:13:04 10° S
Cosmos 2219 4.2 19:04:30 10° SSE 19:08:59 24° E 19:09:25 24° E
SAR-Lupe-4 4.4 19:11:27 31° ENE 19:11:27 31° ENE 19:14:21 10° N
Spot 2 Rocket 3.5 19:07:28 10° SSE 19:12:24 58° ENE 19:17:22 10° N
Resurs 01 Rocket 1.5 19:10:52 10° SSE 19:15:12 64° ENE 19:19:35 10° N
Cosmos 2360 Rocket 2.4 19:09:50 10° NNW 19:15:18 47° ENE 19:18:45 22° SE
DNEPR-1 R/B 3.6 19:11:48 10° NW 19:16:01 76° WSW 19:20:17 10° SSE
GEOS 3 Rocket 4.0 19:13:01 10° NNE 19:18:14 67° NW 19:23:28 10° SW
Cosmos 2219 Rocket 4.0 19:15:36 10° NNE 19:17:49 14° NE 19:17:49 14° NE
Cosmos 1850 Rocket 4.5 19:15:03 10° SSE 19:19:51 36° E 19:21:59 26° ENE
Cosmos 614 Rocket 4.2 19:15:27 10° S 19:20:15 43° ESE 19:23:32 19° NE
Cosmos 2181 Rocket 3.9 19:14:56 10° N 19:21:11 74° E 19:27:29 10° SSE
Cosmos 1602 3.6 19:18:23 10° S 19:22:14 82° E 19:26:09 10° N
CENTAUR R/B 4.4 19:14:55 10° NW 19:22:16 40° WSW 19:29:53 10° S
Tiangong 2 0.8 19:19:29 10° WNW 19:22:33 83° NNE 19:22:43 78° ENE
SL-19 R/B 4.2 19:18:17 10° SSE 19:23:52 82° ENE 19:29:47 10° NNW
Envisat 4.3 19:30:10 23° NE 19:30:10 23° NE 19:32:55 10° NNE
ATLAS CENTAUR R/B 4.1 19:26:14 10° S 19:27:49 14° SSE 19:27:49 14° SSE
HJ-1C 4.1 19:26:40 10° S 19:29:58 54° W 19:33:18 10° NNW
Cosmos 1954 Rocket 4.0 19:25:03 10° SSW 19:30:13 82° WNW 19:35:28 10° NNE
BREEZE-M DEB (TANK) 4.2 19:28:50 10° NW 19:32:06 41° NNE 19:33:50 33° ENE
Cosmos 1833 4.2 19:27:50 10° SSW 19:33:34 86° WNW 19:39:16 10° NNE
Cosmos 1633 3.3 19:33:35 10° SSW 19:37:11 55° W 19:40:50 10° N
Cosmos 1300 Rocket 3.9 19:35:41 10° SSW 19:40:02 67° W 19:44:28 10° N
Cosmos 2333 Rocket 4.0 19:36:19 10° N 19:38:33 16° NNE 19:38:33 16° NNE
Cosmos 2184 Rocket 4.0 19:33:58 10° SSE 19:40:08 56° E 19:46:15 10° NNE
Resurs 1-3 3.6 19:36:01 10° S 19:40:24 80° WSW 19:44:49 10° NNW
Cosmos 2074 Rocket 3.9 19:34:29 10° S 19:40:35 59° E 19:46:44 10° NNE
TSX-5 4.5 19:37:56 10° SW 19:40:59 41° WNW 19:41:56 31° NNW
SL-16 R/B 3.8 19:42:31 10° NW 19:47:36 35° WSW 19:52:40 10° SSW
Gbstr 26 Del rocket 3.2 19:44:31 10° SW 19:47:22 47° SSW 19:47:22 47° SSW
Meteor 1-19 Rocket 4.4 19:44:44 10° NNW 19:50:24 74° W 19:56:07 10° S
Meteor 1-5 Rocket 4.2 19:54:12 10° S 20:00:08 73° E 20:06:04 10° NNE
Cosmos 1536 3.7 19:58:13 10° SSW 20:08:16 - N 20:01:14 45° SW
Cosmos 2322 Rocket 4.4 20:01:45 10° NW 20:06:04 23° W 20:10:22 10° SSW
Cosmos 2285 Rocket 4.3 20:00:21 10° N 20:05:48 48° NE 20:05:48 48° NE
Cosmos 1741 Rocket 4.0 20:03:46 10° SSW 20:08:59 80° WNW 20:09:41 66° N
Okean 1 Rocket 4.3 20:04:44 10° SSW 20:09:00 42° WNW 20:13:16 10° N
Helios 1A 3.8 20:11:47 49° WNW 20:11:47 49° WNW 20:15:15 10° NNW
Cosmos 2322 4.1 20:11:48 10° NNW 20:17:25 60° WSW 20:18:56 45° SSW
DELTA 2 R/B (1) 3.7 20:12:29 10° W 20:17:41 66° SW 20:17:41 66° SW
Meteor 1-23 Rocket 4.4 20:12:19 10° NNW 20:18:07 74° W 20:19:24 54° SSW
ATLAS 2A CENTAUR R/B 4.2 20:15:37 10° SW 20:18:32 21° S 20:18:32 21° S
Cosmos 1570 Rocket 4.4 20:17:20 10° NNW 20:21:41 60° NW 20:21:41 60° NW
COSMOS 2428 3.2 20:23:41 10° NNW 20:27:56 52° NNW 20:27:56 52° NNW
Cosmos 2237 4.5 20:24:21 10° NNW 20:29:26 65° WNW 20:29:26 65° WNW
Cosmos 2237 Rocket 4.2 20:36:32 10° N 20:37:59 17° N 20:37:59 17° N
Cosmos 2219 4.4 20:47:18 10° SW 20:51:31 39° W 20:51:31 39° W
Cosmos 2360 Rocket 4.3 20:54:39 10° NW 20:58:55 22° W 21:00:38 19° SW
Cosmos 2219 Rocket 4.1 20:57:38 10° NNW 20:59:35 22° NNW 20:59:35 22° NNW
